Location: Newark
(35.2672°N, 80.7344°W)
Time: 07:12:32
(UTC+00:00)

Vanguard 2 Rocket - Pass Details

Date: 18 January 2020
Orbit: 554 x 3327 km, 32.9° (Epoch: 20 February)

Event Time Altitude Azimuth Distance (km) Brightness Sun altitude
Rises 16:20:59 0° 278° (W) 4,552 10.2 31.6°
Reaches altitude 10° 16:23:32 10° 275° (W) 3,862 10.0 31.8°
Maximum altitude 16:34:16 64° 198° (SSW) 2,550 10.2 32.5°
Drops below altitude 10° 16:52:09 10° 122° (ESE) 6,096 11.8 33.3°
Sets 16:57:23 0° 120° (ESE) 7,261 12.0 33.5°
